When you browse on this site, cookies collect data to enhance your experience and personalize the content and advertising you see.
Visit our Privacy Policy to learn more. By continuing to use the site, you agree to this use of cookies and data.
  • en France
  • Liste des pays
  • À 7 jours
  • Température de l'eau
  • Carte satellitaire
  • Carte météo
  • Widgets météo
  • user-avatar
    Se connecter

    Météo par heure à Asadabad

    Ce jour, 19 Février, Mardi

    Heure Température Précipitation Vent Pression Humidité
    00:00 +3°C° 0 mm 2 m/s 654 mmHg 59%
    01:00 +2°C° 0 mm 2 m/s 654 mmHg 56%
    02:00 +1°C° 0 mm 3 m/s 654 mmHg 53%
    03:00 +1°C° 0 mm 3 m/s 654 mmHg 51%
    04:00 0°C° 0 mm 3 m/s 654 mmHg 50%
    05:00 +2°C° 0 mm 2 m/s 653 mmHg 44%
    06:00 +2°C° 0 mm 2 m/s 654 mmHg 41%
    07:00 +3°C° 0 mm 2 m/s 654 mmHg 39%
    08:00 +4°C° 0 mm 2 m/s 655 mmHg 37%
    09:00 +5°C° 0 mm 2 m/s 655 mmHg 36%
    10:00 +6°C° 0 mm 2 m/s 656 mmHg 34%
    11:00 +9°C° 0 mm 1 m/s 656 mmHg 33%
    12:00 +9°C° 0 mm 1 m/s 656 mmHg 37%
    13:00 +9°C° 0 mm 1 m/s 656 mmHg 42%
    14:00 +8°C° 0 mm 2 m/s 656 mmHg 46%
    15:00 +9°C° 0.3 mm 1 m/s 657 mmHg 50%
    16:00 +9°C° 0.3 mm 1 m/s 657 mmHg 53%
    17:00 +8°C° 0.3 mm 1 m/s 657 mmHg 57%
    18:00 +7°C° 0.4 mm 2 m/s 658 mmHg 61%
    19:00 +6°C° 0.4 mm 2 m/s 659 mmHg 65%
    20:00 +5°C° 0.4 mm 3 m/s 660 mmHg 70%
    21:00 +4°C° 0.5 mm 3 m/s 660 mmHg 71%
    22:00 +4°C° 0.5 mm 3 m/s 660 mmHg 72%
    23:00 +4°C° 0.5 mm 3 m/s 660 mmHg 72%

    Demain, 20 Février, Mercredi

    Heure Température Précipitation Vent Pression Humidité
    00:00 +3°C° 0.6 mm 3 m/s 660 mmHg 73%
    01:00 +3°C° 0.6 mm 3 m/s 660 mmHg 74%
    02:00 +2°C° 0.6 mm 3 m/s 660 mmHg 75%
    03:00 +2°C° 0.5 mm 3 m/s 659 mmHg 76%
    04:00 +2°C° 0.5 mm 3 m/s 659 mmHg 77%
    05:00 +2°C° 0.5 mm 3 m/s 659 mmHg 77%
    06:00 +2°C° 0.2 mm 3 m/s 659 mmHg 75%
    07:00 +1°C° 0.2 mm 4 m/s 659 mmHg 74%
    08:00 +3°C° 0.2 mm 4 m/s 660 mmHg 72%
    09:00 +3°C° 0.2 mm 4 m/s 659 mmHg 71%
    10:00 +4°C° 0.2 mm 3 m/s 659 mmHg 71%
    11:00 +5°C° 0.2 mm 3 m/s 659 mmHg 70%
    12:00 +5°C° 1 mm 3 m/s 659 mmHg 74%
    13:00 +5°C° 1 mm 3 m/s 658 mmHg 79%
    14:00 +4°C° 1 mm 3 m/s 657 mmHg 83%
    15:00 +4°C° 1.4 mm 3 m/s 657 mmHg 84%
    16:00 +5°C° 1.4 mm 2 m/s 656 mmHg 85%
    17:00 +5°C° 1.4 mm 2 m/s 656 mmHg 86%
    18:00 +5°C° 1.2 mm 2 m/s 656 mmHg 85%
    19:00 +5°C° 1.2 mm 2 m/s 656 mmHg 84%
    20:00 +4°C° 1.2 mm 3 m/s 657 mmHg 83%
    21:00 +5°C° 0.7 mm 2 m/s 656 mmHg 85%
    22:00 +5°C° 0.7 mm 2 m/s 656 mmHg 86%
    23:00 +5°C° 0.7 mm 2 m/s 656 mmHg 87%

    Après-demain, 21 Février, Jeudi

    Heure Température Précipitation Vent Pression Humidité
    00:00 +4°C° 0.5 mm 2 m/s 656 mmHg 88%
    01:00 +4°C° 0.5 mm 2 m/s 655 mmHg 88%
    02:00 +4°C° 0.5 mm 2 m/s 655 mmHg 89%
    03:00 +5°C° 0.5 mm 1 m/s 655 mmHg 89%
    04:00 +5°C° 0.5 mm 1 m/s 655 mmHg 90%
    05:00 +4°C° 0.5 mm 0 m/s 654 mmHg 90%
    06:00 +4°C° 0.4 mm 0 m/s 655 mmHg 91%
    07:00 +4°C° 0.4 mm 0 m/s 655 mmHg 91%
    08:00 +4°C° 0.4 mm 0 m/s 656 mmHg 92%
    09:00 +5°C° 0.2 mm 0 m/s 656 mmHg 92%
    10:00 +6°C° 0.2 mm 1 m/s 657 mmHg 92%
    11:00 +7°C° 0.2 mm 1 m/s 657 mmHg 92%
    12:00 +7°C° 0.5 mm 1 m/s 657 mmHg 90%
    13:00 +7°C° 0.5 mm 1 m/s 657 mmHg 88%
    14:00 +8°C° 0.5 mm 1 m/s 657 mmHg 86%
    15:00 +8°C° 0.5 mm 1 m/s 657 mmHg 83%
    16:00 +8°C° 0.5 mm 1 m/s 657 mmHg 80%
    17:00 +8°C° 0.5 mm 1 m/s 657 mmHg 78%
    18:00 +7°C° 0.1 mm 1 m/s 658 mmHg 77%
    19:00 +6°C° 0.1 mm 1 m/s 658 mmHg 77%
    20:00 +4°C° 0.1 mm 2 m/s 658 mmHg 77%
    21:00 +3°C° 0 mm 2 m/s 659 mmHg 74%
    22:00 +3°C° 0 mm 2 m/s 659 mmHg 71%
    23:00 +3°C° 0 mm 2 m/s 659 mmHg 69%

    22 Février, Vendredi

    Heure Température Précipitation Vent Pression Humidité
    00:00 +1°C° 0 mm 3 m/s 659 mmHg 66%
    01:00 +1°C° 0 mm 3 m/s 659 mmHg 63%
    02:00 +1°C° 0 mm 3 m/s 659 mmHg 61%
    03:00 0°C° 0 mm 3 m/s 659 mmHg 59%
    04:00 0°C° 0 mm 3 m/s 659 mmHg 56%
    05:00 0°C° 0 mm 3 m/s 658 mmHg 54%
    06:00 0°C° 0 mm 3 m/s 659 mmHg 53%
    07:00 +1°C° 0 mm 3 m/s 659 mmHg 52%
    08:00 +1°C° 0 mm 3 m/s 660 mmHg 51%
    09:00 +4°C° 0 mm 2 m/s 660 mmHg 48%
    10:00 +6°C° 0 mm 2 m/s 660 mmHg 45%
    11:00 +9°C° 0 mm 1 m/s 660 mmHg 42%
    12:00 +9°C° 0 mm 1 m/s 659 mmHg 41%
    13:00 +10°C° 0 mm 1 m/s 659 mmHg 41%
    14:00 +11°C° 0 mm 1 m/s 659 mmHg 41%
    15:00 +10°C° 0 mm 1 m/s 659 mmHg 42%
    16:00 +10°C° 0 mm 1 m/s 659 mmHg 43%
    17:00 +10°C° 0 mm 1 m/s 659 mmHg 44%
    18:00 +9°C° 0 mm 1 m/s 659 mmHg 47%
    19:00 +6°C° 0 mm 2 m/s 659 mmHg 49%
    20:00 +3°C° 0 mm 3 m/s 660 mmHg 52%
    21:00 +3°C° 0 mm 3 m/s 660 mmHg 51%
    22:00 +2°C° 0 mm 3 m/s 660 mmHg 50%
    23:00 +2°C° 0 mm 3 m/s 660 mmHg 50%

    23 Février, Samedi

    Heure Température Précipitation Vent Pression Humidité
    00:00 +1°C° 0 mm 4 m/s 660 mmHg 48%
    01:00 +1°C° 0 mm 4 m/s 660 mmHg 46%
    02:00 0°C° 0 mm 4 m/s 660 mmHg 44%
    03:00 0°C° 0 mm 4 m/s 660 mmHg 43%
    04:00 0°C° 0 mm 4 m/s 659 mmHg 42%
    05:00 0°C° 0 mm 4 m/s 659 mmHg 40%
    06:00 0°C° 0 mm 4 m/s 659 mmHg 40%
    07:00 +1°C° 0 mm 4 m/s 659 mmHg 40%
    08:00 +1°C° 0 mm 4 m/s 660 mmHg 40%
    09:00 +4°C° 0 mm 3 m/s 659 mmHg 37%
    10:00 +8°C° 0 mm 2 m/s 659 mmHg 35%
    11:00 +11°C° 0 mm 1 m/s 659 mmHg 33%
    12:00 +11°C° 0 mm 1 m/s 658 mmHg 33%
    13:00 +11°C° 0 mm 1 m/s 658 mmHg 34%
    14:00 +12°C° 0 mm 1 m/s 657 mmHg 34%
    15:00 +12°C° 0 mm 1 m/s 657 mmHg 33%
    16:00 +11°C° 0 mm 1 m/s 657 mmHg 33%
    17:00 +11°C° 0 mm 1 m/s 657 mmHg 32%
    18:00 +8°C° 0 mm 2 m/s 658 mmHg 35%
    19:00 +7°C° 0 mm 2 m/s 658 mmHg 38%
    20:00 +4°C° 0 mm 3 m/s 658 mmHg 41%
    21:00 +4°C° 0 mm 3 m/s 658 mmHg 41%
    22:00 +3°C° 0 mm 3 m/s 658 mmHg 40%
    23:00 +3°C° 0 mm 3 m/s 658 mmHg 40%

    24 Février, Dimanche

    Heure Température Précipitation Vent Pression Humidité
    00:00 +3°C° 0 mm 3 m/s 658 mmHg 39%
    01:00 +2°C° 0 mm 3 m/s 657 mmHg 39%
    02:00 +2°C° 0 mm 3 m/s 657 mmHg 38%
    03:00 +2°C° 0 mm 3 m/s 657 mmHg 38%
    04:00 +2°C° 0 mm 3 m/s 657 mmHg 38%
    05:00 +2°C° 0 mm 3 m/s 657 mmHg 38%
    06:00 +2°C° 0 mm 3 m/s 657 mmHg 38%
    07:00 +3°C° 0 mm 3 m/s 657 mmHg 38%
    08:00 +3°C° 0 mm 3 m/s 658 mmHg 38%
    09:00 +6°C° 0 mm 2 m/s 657 mmHg 36%
    10:00 +7°C° 0 mm 2 m/s 657 mmHg 34%
    11:00 +10°C° 0 mm 1 m/s 657 mmHg 32%
    12:00 +10°C° 0 mm 1 m/s 657 mmHg 33%
    13:00 +10°C° 0 mm 1 m/s 656 mmHg 34%
    14:00 +11°C° 0 mm 1 m/s 656 mmHg 35%
    15:00 +11°C° 0 mm 1 m/s 656 mmHg 35%
    16:00 +10°C° 0 mm 1 m/s 656 mmHg 35%
    17:00 +10°C° 0 mm 1 m/s 656 mmHg 35%
    18:00 +9°C° 0 mm 1 m/s 656 mmHg 38%
    19:00 +6°C° 0 mm 2 m/s 656 mmHg 41%
    20:00 +5°C° 0 mm 2 m/s 657 mmHg 44%
    21:00 +5°C° 0 mm 2 m/s 657 mmHg 43%
    22:00 +4°C° 0 mm 2 m/s 657 mmHg 43%
    23:00 +3°C° 0 mm 3 m/s 657 mmHg 43%
    Voir plus